Location: Unspecified
(0.0000°N, 0.0000°E)
Time: 21:17:58
(UTC+00:00)

IBEX - Pass Details

Date: 27 May 2019
Orbit: 43050 x 333428 km, 30.2° (Epoch: 06 August)

Event Time Altitude Azimuth Distance (km) Brightness Sun altitude
Rises 20:49:33 0° 96° (E) 326,350 ? -39.6°
Reaches altitude 10° 21:30:43 10° 97° (E) 324,571 ? -48.5°
Maximum altitude 02:51:25 82° 179° (S) 313,637 ? -42.5°
Drops below altitude 10° 08:12:48 10° 261° (W) 311,926 ? 31.3°
Sets 08:54:14 0° 261° (W) 312,075 ? 40.6°
